Find BRO-1

NORAD ID: 44495 Int'l Des: 2019-054 Owner: UNSEEN Country: F operational
LEOCIRCULAR

Live Position

Loading 3D Globe...

About BRO-1

Description loading...

Upcoming Passes

Passes for default location (London). Set your location on the main map for personalized predictions.

Altitude History

Loading altitude history...

Two-Line Element Set

1 44495U 19054A 26106.87274645 .00071736 00000-0 51077-3 0 9990
2 44495 44.9980 291.3151 0009991 251.2118 108.7698 15.72922361370043
Epoch: Apr 16, 2026 • Age: 19 hours

Current Status

Altitude 352.9 km
Velocity 7.70 km/s
Sub-Earth Point -30.43°S, 53.71°E
Launch Date Aug 19, 2019
Age 6.6 years
Type other

Technical Details

Classification Payload
Mass 10.00 kg
Dry Mass 10.00 kg
Total Mass 10.00 kg
Length 0.30 m
Diameter 0.20 m
Span 0.30 m
Shape Box
Manufacturer GOMSP
Bus Type Cubesat 6U
Phase Status In Orbit
Owner/State UNSEEN/F

Most Searched